Location: Luxembourg
(49.6117°N, 6.1300°E)
Time: 22:27:31
(UTC+02:00)

Envisat - Visible Passes

Search period start: 23 September 2018 00:00
Search period end: 03 October 2018 00:00
Orbit: 764 x 766 km, 98.2° (Epoch: 22 September)

Date Brightness Start Highest point End Pass type
(mag) Time Alt. Az. Time Alt. Az. Time Alt. Az.
23 Sep 3.0 20:19:03 10° SSE 20:24:07 80° ENE 20:29:14 10° NNW visible
23 Sep 5.7 22:00:41 10° SW 22:03:46 16° W 22:06:53 10° NW visible
24 Sep 4.8 21:22:07 10° SSW 21:26:38 32° W 21:31:10 10° NNW visible
25 Sep 3.5 20:44:40 10° S 20:49:42 64° WSW 20:54:46 10° NNW visible
26 Sep 3.0 20:07:56 10° SSE 20:12:57 65° ENE 20:18:01 10° N visible
26 Sep 5.5 21:48:48 10° SW 21:52:28 20° W 21:56:08 10° NW visible
27 Sep 4.4 21:10:39 10° SSW 21:15:22 39° W 21:20:09 10° NNW visible
28 Sep 3.1 20:33:26 10° S 20:38:29 78° WSW 20:43:37 10° NNW visible
28 Sep 5.9 22:16:34 10° WSW 22:18:23 12° W 22:20:12 10° WNW visible
29 Sep 3.2 19:56:53 10° SE 20:01:48 53° ENE 20:06:46 10° N visible
29 Sep 5.2 21:37:05 10° SW 21:41:09 24° W 21:45:15 10° NW visible
30 Sep 4.0 20:59:15 10° S 21:04:08 48° W 21:09:04 10° NNW visible
01 Oct 3.0 20:22:14 10° SSE 20:27:19 86° ENE 20:32:26 10° NNW visible
01 Oct 5.8 22:04:14 10° WSW 22:07:02 15° W 22:09:52 10° NW visible
02 Oct 3.4 19:45:54 10° SE 19:50:42 44° ENE 19:55:30 10° N visible
02 Oct 4.9 21:25:28 10° SSW 21:29:52 29° W 21:34:18 10° NNW visible
